GFSMW_sfc_dewp_069.txt.gz
Dewpoint
46 49 51 53 57 58 59 58 57 58 59 59 59 57 57 58 59 58 58 57 56 56 57 55 58 59 57 56 58 56 57 53 53 48 47 48 49 49 47 45 45 46 47
46 49 51 52 54 57 58 58 57 57 58 58 57 57 56 57 55 57 58 56 56 54 54 55 56 57 57 59 59 58 57 55 57 51 52 50 49 49 50 49 48 52 46
46 49 50 52 54 56 57 58 57 57 57 57 57 57 57 57 55 55 57 57 57 56 55 56 58 58 57 58 60 60 59 56 57 57 57 52 49 53 53 53 50 52 50
46 48 50 50 53 55 57 57 57 57 56 57 56 55 54 55 54 54 55 55 59 56 56 57 58 59 58 58 59 59 59 59 57 57 56 57 55 51 50 52 53 53 50
46 48 49 49 51 55 56 57 57 57 57 57 56 55 54 54 55 53 54 56 56 58 55 58 59 58 60 60 61 60 60 60 57 56 57 55 53 54 51 47 50 51 51
44 47 49 49 48 54 56 57 57 57 57 57 57 56 55 54 53 56 53 55 56 57 58 58 58 59 59 61 60 59 59 59 60 57 57 55 52 51 53 52 54 55 55
44 47 47 48 48 51 55 55 56 55 57 57 57 57 56 53 53 55 56 55 56 57 57 58 56 56 56 57 59 58 59 58 59 59 57 56 57 56 56 55 55 54 54
44 46 47 48 48 50 53 54 54 54 56 57 56 57 56 54 53 54 55 56 55 55 56 57 56 56 56 57 57 58 57 59 59 59 58 58 57 57 57 57 54 50 53
42 46 47 48 49 49 52 54 53 53 55 56 57 57 57 56 56 56 57 57 56 53 54 55 56 57 56 56 56 55 56 57 58 60 60 58 59 60 59 57 55 52 50
39 44 47 49 50 50 51 54 53 52 52 55 57 56 56 57 56 56 56 56 57 56 55 55 55 55 55 55 55 53 56 57 58 58 59 59 59 59 59 57 57 56 53
40 43 46 49 50 50 50 52 52 52 52 53 55 56 56 56 57 56 56 56 57 57 56 56 56 55 55 55 55 55 55 55 56 57 58 58 59 59 59 59 57 55 54
40 42 45 48 50 51 51 50 52 52 52 53 53 56 57 57 57 56 57 57 56 57 56 56 55 55 54 55 55 55 54 55 55 56 57 57 57 58 58 55 54 54 53
32 38 44 46 48 50 51 50 51 51 51 51 53 55 57 57 57 57 57 57 57 56 55 54 54 54 55 55 55 55 55 55 55 55 56 57 57 55 55 55 54 53 52
31 33 39 44 47 49 51 51 52 52 51 50 51 53 56 56 57 57 57 57 57 56 55 55 54 55 54 53 54 54 55 55 55 55 57 56 56 54 54 53 52 52 50
28 30 33 39 43 47 49 51 51 52 52 51 50 52 56 56 56 57 57 57 57 56 56 56 56 56 55 53 55 54 55 54 54 56 56 55 54 50 52 53 52 50 47
30 32 33 33 34 41 46 48 51 53 53 53 53 52 54 54 55 57 57 57 57 56 56 56 56 56 54 47 45 50 56 54 55 55 55 54 50 49 45 45 45 46 45
35 35 35 33 36 37 39 46 48 51 53 53 53 53 53 53 55 55 55 55 57 57 57 56 56 56 56 46 44 43 54 55 54 54 56 54 52 47 49 40 38 35 37
40 40 39 37 37 40 38 39 42 48 50 51 52 53 53 53 53 54 54 55 56 56 56 57 57 56 55 44 43 43 54 55 55 55 55 52 45 44 41 37 31 30 31
40 43 44 45 45 45 46 41 38 40 46 50 52 51 53 53 53 53 55 55 56 56 56 56 56 56 56 44 42 44 52 45 40 41 41 40 38 37 36 32 31 31 30
41 44 46 48 49 50 51 49 45 40 40 45 50 51 52 53 53 55 55 56 56 56 55 51 47 42 50 41 42 44 40 36 34 34 35 35 35 34 35 34 31 28 27
41 45 46 47 48 48 49 50 49 50 51 49 48 50 51 53 53 54 56 56 54 46 41 39 38 37 38 38 39 39 36 33 32 32 31 32 33 34 33 32 31 28 29
41 43 45 46 46 46 48 48 47 48 51 52 51 50 50 51 53 52 49 48 44 39 37 35 34 33 34 34 35 34 34 33 30 29 30 31 31 30 30 29 29 28 28
40 41 43 43 43 40 40 41 42 44 45 44 44 43 42 41 41 42 41 39 39 38 35 32 30 29 30 31 32 31 31 31 30 29 29 29 28 28 27 27 28 28 28
36 37 39 38 36 35 35 36 39 39 38 36 36 36 35 35 35 35 36 35 35 34 32 30 28 28 27 28 29 29 30 29 28 28 28 28 27 26 25 26 27 26 25
34 34 34 34 32 32 32 33 35 37 35 33 33 33 32 31 29 29 31 31 32 33 30 29 28 26 25 27 29 28 28 28 27 28 28 27 27 26 26 26 25 23 20
31 30 30 31 30 30 30 31 32 34 34 32 31 31 30 30 28 27 27 30 30 30 29 28 27 28 29 30 30 30 30 30 30 30 28 28 29 27 25 24 21 21 19

GFSMW_sfc_dewp_072.txt.gz
Dewpoint
46 49 52 54 56 59 59 59 59 59 59 59 58 58 58 58 57 58 58 59 59 57 58 59 59 58 56 56 57 56 55 55 54 51 50 50 50 49 48 48 48 48 49
45 49 51 53 56 56 58 58 57 58 58 59 58 57 58 57 56 57 58 58 58 57 57 57 57 58 57 57 56 56 56 55 55 51 50 49 49 50 50 49 48 48 48
45 48 50 52 55 55 57 57 57 58 58 58 57 57 57 57 56 55 56 57 56 56 56 56 56 57 57 57 58 58 56 55 55 55 54 50 50 51 50 50 50 49 51
46 48 50 52 53 55 57 57 57 57 58 58 57 56 55 54 53 51 53 57 58 56 55 56 56 56 57 59 59 60 57 57 55 56 57 57 56 51 52 54 52 52 50
46 47 49 51 52 55 55 58 57 57 57 57 56 56 55 54 53 50 51 56 57 57 56 57 58 57 57 59 59 59 58 58 56 55 55 55 55 55 52 49 51 52 52
46 47 50 50 51 55 55 58 57 57 56 57 56 56 55 54 54 52 52 55 55 57 57 58 59 59 60 59 58 58 58 57 56 56 56 55 53 53 53 52 52 52 52
44 46 48 48 50 54 56 57 57 56 57 57 56 56 56 55 55 52 51 54 54 55 57 56 57 56 57 59 59 58 57 57 56 56 55 55 56 56 55 53 52 52 53
43 46 48 48 48 54 55 56 56 56 57 57 57 56 56 55 55 54 52 52 54 55 56 57 56 56 57 57 57 56 57 56 57 56 55 54 55 55 55 53 53 50 51
41 45 47 49 49 51 55 55 56 55 56 57 57 57 56 56 55 55 55 54 54 54 55 56 56 55 54 55 55 55 55 55 55 55 55 55 56 57 57 56 56 53 50
39 45 46 49 49 50 53 56 55 54 56 56 57 57 56 56 55 54 54 56 56 55 55 55 56 55 54 54 54 53 54 55 55 54 55 55 55 57 58 57 57 55 54
41 44 46 49 50 51 52 54 54 53 55 56 56 56 56 57 57 55 55 54 57 56 54 55 54 54 53 53 53 53 53 53 52 54 54 55 57 57 57 57 57 56 55
42 44 46 49 49 50 50 52 54 53 53 55 56 56 56 56 57 56 56 56 55 56 55 54 54 53 53 53 53 53 52 52 51 52 53 54 55 56 57 58 57 57 56
37 42 46 47 49 50 51 50 53 53 53 53 55 56 56 56 56 56 56 56 56 55 55 55 53 53 53 53 53 52 52 52 52 52 52 53 54 54 57 57 56 56 55
34 37 42 45 48 51 52 52 52 53 52 52 53 54 56 56 56 56 56 56 56 55 55 55 54 54 54 53 53 52 53 52 52 53 53 53 53 54 56 56 55 55 54
33 34 36 41 45 49 52 52 52 53 53 52 51 53 55 56 57 56 57 56 56 55 54 55 55 54 54 53 53 53 53 53 53 53 53 53 52 49 53 55 54 53 52
38 38 37 36 37 44 48 51 52 53 53 52 51 52 53 55 55 56 57 57 56 56 55 55 54 54 53 47 44 48 52 52 52 52 53 53 48 49 46 46 46 51 52
40 41 43 43 43 41 44 44 51 53 53 53 53 52 52 52 55 55 55 55 56 56 56 55 55 55 54 46 44 43 52 53 53 53 53 53 53 48 52 44 40 36 35
41 44 45 47 48 50 50 50 48 45 52 53 53 53 53 53 53 54 54 55 55 55 55 55 55 55 54 45 44 42 50 52 53 53 53 53 52 49 46 37 33 33 33
42 45 47 49 49 48 49 50 50 48 43 51 52 53 54 53 53 53 54 54 55 55 55 55 55 55 55 44 43 43 50 52 42 40 40 42 41 39 38 34 33 31 30
43 44 47 47 46 46 49 50 49 49 49 52 53 53 53 53 53 54 54 54 55 55 55 54 46 40 47 39 41 44 43 37 34 34 34 35 35 35 35 34 31 29 28
42 43 46 44 42 42 45 45 44 44 46 48 48 46 47 50 53 55 54 55 54 46 40 36 36 36 37 37 39 40 38 34 32 32 31 32 34 34 33 31 29 28 29
38 39 42 40 38 37 39 40 40 41 41 40 39 38 38 39 42 48 46 45 43 39 35 34 32 32 33 35 35 35 34 33 31 30 30 32 32 31 30 29 29 29 28
35 35 36 36 35 34 34 35 36 38 37 35 34 33 32 31 33 36 38 38 38 36 34 32 30 29 31 32 33 33 32 31 30 30 30 30 29 29 28 29 30 29 29
32 33 34 32 32 32 32 33 34 37 35 34 32 31 30 29 28 29 31 32 33 32 31 30 28 28 28 29 30 29 28 28 28 27 26 26 26 26 27 26 26 26 26
29 30 29 29 29 29 30 31 32 34 34 32 31 30 29 28 27 28 29 29 30 31 29 28 28 26 26 29 30 28 27 27 27 27 27 26 26 26 26 26 25 25 26
26 25 26 25 26 26 27 28 31 31 32 30 30 30 28 27 26 25 26 30 31 31 30 30 29 30 30 31 31 31 31 31 31 29 28 27 27 26 25 24 24 23 20

GFSMW_sfc_dewp_075.txt.gz
Dewpoint
47 50 55 56 58 59 59 58 58 59 59 58 58 58 57 59 59 59 58 59 58 58 58 59 59 60 59 57 54 53 52 52 51 48 48 48 48 49 49 50 53 54 54
48 50 55 55 57 58 58 58 58 58 59 58 57 58 57 58 58 58 58 57 57 57 57 57 58 59 59 58 56 54 55 54 52 48 49 46 47 48 48 48 47 48 50
48 49 54 54 55 57 58 57 56 58 58 58 57 58 57 57 56 57 56 55 56 57 56 57 57 58 58 57 55 55 53 54 54 50 52 50 46 49 50 49 48 46 48
48 49 52 54 54 55 57 57 57 57 58 58 57 57 56 55 55 55 55 55 58 57 56 56 56 56 55 55 57 57 55 56 54 55 57 55 54 50 48 53 50 50 48
48 49 50 54 54 54 57 57 57 57 57 58 57 56 56 55 55 54 54 56 56 57 56 56 56 56 57 57 58 57 57 57 55 53 54 53 54 54 51 48 51 52 51
47 48 50 52 54 55 56 57 57 56 57 58 56 56 55 54 54 53 52 54 55 57 56 57 56 56 56 58 58 58 57 57 56 55 55 53 52 51 51 49 50 50 51
46 48 50 51 53 54 55 56 56 56 57 57 56 55 55 54 53 50 50 52 55 56 56 56 57 57 56 57 58 58 57 57 56 55 55 55 55 55 55 54 52 52 52
46 48 49 50 53 54 54 55 56 56 56 56 56 56 55 54 53 51 49 50 54 55 57 56 58 57 57 58 58 58 57 57 57 56 55 54 54 55 55 53 52 49 50
45 47 48 49 53 54 54 55 54 54 57 56 56 56 56 55 55 53 51 50 53 54 55 56 56 57 56 56 57 57 56 56 56 56 55 55 54 55 55 55 54 51 48
45 47 47 48 53 54 55 55 56 55 55 57 57 56 56 56 55 55 53 51 51 53 55 56 56 56 55 55 55 54 54 55 55 55 55 54 54 55 56 55 55 55 52
44 46 47 48 50 54 54 55 56 55 56 56 56 56 56 56 56 54 55 54 52 52 54 55 56 56 55 54 53 53 53 53 53 54 55 54 54 54 55 55 55 55 55
42 46 47 48 48 50 54 54 54 55 55 55 56 56 56 57 56 55 54 55 55 54 54 54 54 55 55 54 52 52 51 52 52 53 54 53 54 54 55 55 55 55 55
42 45 47 48 48 49 51 53 54 53 54 55 55 55 55 55 55 56 55 54 54 55 55 54 54 54 54 53 52 52 52 52 53 53 52 52 53 54 55 55 55 56 55
36 43 46 48 48 49 50 52 53 54 53 55 55 55 55 55 54 55 56 56 55 54 55 55 54 54 54 53 52 52 52 52 52 52 52 52 51 52 53 54 55 55 56
41 42 42 43 46 51 51 50 52 53 53 53 54 55 55 55 55 55 56 56 55 55 55 55 55 54 53 53 53 52 52 52 52 52 52 52 51 48 50 53 54 55 55
42 44 46 48 48 49 52 53 52 52 53 52 52 53 55 56 56 56 56 56 55 55 55 55 54 54 54 48 45 49 52 52 51 51 52 52 48 48 44 44 46 52 55
43 46 48 47 47 48 49 50 52 54 55 53 52 52 53 54 55 56 56 55 55 55 55 55 55 54 54 46 44 43 52 53 53 53 52 52 52 48 52 43 39 36 36
45 47 46 45 45 45 49 50 49 49 50 53 54 54 54 53 54 55 55 55 56 56 55 55 55 55 54 45 44 41 49 52 52 52 52 52 52 51 49 40 34 33 34
46 45 43 42 41 41 45 46 45 46 46 48 49 48 50 50 54 54 54 55 55 55 55 55 55 55 55 45 44 44 51 51 52 43 41 45 47 43 41 36 32 31 31
44 42 39 38 37 37 41 42 42 42 42 43 43 42 42 44 46 50 52 55 55 55 55 54 48 40 49 39 41 42 49 45 37 35 35 36 38 36 36 34 32 28 28
36 38 36 34 34 34 37 37 37 38 39 39 39 38 37 38 38 43 44 44 49 49 45 41 37 36 37 37 39 40 41 40 34 32 32 34 35 35 34 33 31 29 29
33 35 34 32 32 32 33 34 34 36 37 36 34 33 33 33 34 35 37 38 39 39 37 34 32 32 33 34 34 34 34 34 31 31 31 32 32 32 31 30 30 30 29
30 32 31 31 30 30 31 31 32 35 35 33 32 31 30 30 30 31 30 32 34 34 32 31 30 31 31 30 31 31 31 31 29 30 30 31 30 29 29 30 30 29 29
28 28 28 27 27 27 28 30 31 33 33 32 30 29 28 28 28 28 29 29 30 30 30 29 27 28 29 28 28 28 27 27 26 27 27 27 27 26 26 26 26 26 26
25 25 26 25 25 26 27 28 30 31 30 30 29 28 27 26 27 28 28 28 29 29 27 28 28 27 26 28 29 28 27 27 27 28 27 26 25 24 24 24 24 23 23
23 23 24 25 25 25 27 28 29 29 29 28 28 27 27 26 25 24 25 30 30 30 30 30 29 30 31 32 32 32 31 31 30 27 24 23 23 23 22 20 19 21 21

GFSMW_sfc_dewp_081.txt.gz
Dewpoint
44 53 56 57 56 55 55 56 56 57 59 59 59 60 60 61 62 62 62 60 58 55 52 53 53 52 50 52 53 52 50 50 51 50 49 50 53 53 53 54 54 54 55
52 55 56 57 57 55 55 55 55 57 56 59 58 59 60 60 61 61 61 61 58 54 52 54 51 52 52 54 54 52 50 50 50 49 48 47 48 50 52 54 54 54 54
51 54 55 56 56 55 55 55 56 56 57 58 58 58 59 59 59 59 60 60 59 57 52 54 53 54 54 54 54 52 50 50 50 49 49 46 45 49 49 50 53 53 53
49 53 55 55 55 55 56 55 55 57 57 58 57 57 57 56 57 58 59 58 59 58 57 56 58 55 55 55 55 54 51 53 49 50 53 51 50 47 47 51 49 52 52
48 52 55 55 55 55 55 55 55 57 57 57 57 56 56 56 58 58 57 57 58 59 58 58 58 58 57 57 56 55 54 53 51 49 53 53 53 51 50 48 50 49 48
47 52 54 55 54 55 55 55 56 55 57 57 56 55 55 55 56 57 57 57 57 58 58 58 58 58 57 57 57 57 55 55 53 50 53 52 52 51 50 49 48 49 50
48 52 53 54 54 54 54 55 55 56 57 56 56 55 54 55 55 56 56 56 56 57 57 57 57 57 57 57 57 57 57 56 54 52 51 53 53 53 52 50 50 49 50
48 52 53 53 54 54 54 55 55 56 57 57 56 56 54 54 55 55 55 55 55 55 56 56 56 57 57 56 56 57 57 56 55 54 53 53 53 54 53 52 51 48 48
47 51 52 52 53 53 54 54 55 55 56 57 56 56 56 55 55 54 55 55 55 55 55 56 56 56 56 56 56 55 56 56 56 55 55 55 55 55 55 55 54 51 48
48 50 52 52 53 54 54 55 55 55 55 57 57 56 56 55 55 54 53 53 53 54 55 56 55 56 56 56 56 56 55 56 55 55 55 54 54 55 55 55 54 54 52
48 50 51 52 53 54 55 55 55 54 54 56 57 56 56 56 55 53 52 52 52 53 55 56 56 56 56 55 55 55 55 55 54 55 55 54 54 54 54 55 53 53 53
47 49 51 52 53 53 54 54 54 54 55 56 57 56 56 56 55 54 53 51 51 52 54 54 56 56 56 56 55 55 54 55 54 54 54 54 54 54 53 53 52 53 53
47 48 52 52 53 53 54 54 54 53 54 55 55 56 56 56 56 55 55 53 51 50 52 53 54 55 55 55 55 55 55 55 55 54 54 54 54 53 53 53 53 53 53
50 51 50 52 54 54 54 55 55 55 55 55 55 55 54 55 56 56 55 56 54 52 51 51 52 53 54 55 55 54 54 54 54 54 54 54 53 53 53 53 53 53 52
46 47 49 51 52 53 54 54 55 55 55 55 55 55 55 55 55 55 55 55 56 55 54 53 52 52 52 52 53 54 53 53 53 52 52 52 51 48 50 52 51 52 51
43 44 45 46 47 47 48 49 49 51 55 55 55 55 55 55 55 55 55 55 55 55 55 55 55 53 52 47 44 48 52 53 52 52 52 52 47 47 43 43 44 48 51
40 40 40 42 42 43 43 44 45 46 48 48 48 49 53 55 54 54 54 54 54 55 55 54 54 54 55 46 45 44 52 53 53 53 52 52 52 47 51 46 42 42 42
37 37 37 37 38 39 39 39 40 41 41 42 42 42 45 46 49 51 55 55 55 54 55 55 55 55 54 42 44 43 51 53 53 53 53 53 52 52 51 50 50 48 48
35 34 34 35 36 37 37 37 36 36 36 36 36 37 39 40 43 44 45 46 49 53 55 55 55 52 43 36 36 38 49 52 53 53 54 46 49 47 44 49 49 41 32
32 32 32 32 33 35 35 35 34 33 32 32 32 32 34 34 35 37 38 42 45 42 40 34 33 34 33 34 35 36 42 48 49 38 35 34 34 34 35 39 46 36 29
31 30 30 29 30 32 34 34 33 31 30 30 30 30 30 31 32 33 35 36 37 35 33 31 30 30 32 32 34 36 36 34 34 32 31 32 33 33 33 32 32 31 30
28 28 28 28 28 29 31 31 32 31 29 29 28 28 29 29 30 31 31 32 33 32 31 30 29 29 29 31 32 33 33 33 31 30 30 31 32 31 31 30 31 30 29
26 26 26 27 28 28 29 29 31 31 29 28 27 27 28 28 28 29 29 29 30 29 28 28 27 27 28 28 30 30 29 29 29 28 29 29 29 28 27 28 28 27 26
25 26 26 26 27 28 28 28 30 29 28 27 26 26 26 26 27 28 28 29 28 27 27 27 26 27 27 26 27 28 28 27 27 26 25 25 25 24 23 23 24 23 23
23 24 25 25 25 25 26 27 27 28 27 27 26 25 25 25 24 26 27 26 28 29 27 28 28 27 27 28 29 27 26 25 25 23 21 20 19 19 19 19 19 20 19
21 21 22 23 23 24 24 25 26 26 26 25 25 26 25 24 23 21 22 26 26 26 27 27 26 27 28 27 27 26 25 24 22 19 17 17 17 17 16 16 16 17 16

GFSMW_sfc_dewp_084.txt.gz
Dewpoint
24 38 53 56 55 55 56 56 55 55 58 59 60 60 60 60 60 62 62 62 61 62 59 56 55 54 54 52 51 50 52 52 53 52 51 51 53 53 54 54 54 54 55
46 52 54 55 56 55 56 56 56 56 58 57 59 59 60 61 61 61 61 60 59 58 56 54 53 52 52 52 52 50 50 51 53 51 50 48 50 52 53 54 54 54 55
39 53 55 55 56 55 55 55 55 55 56 59 58 59 59 59 60 61 60 59 58 56 55 54 52 50 51 51 52 50 50 51 51 52 50 48 48 50 51 53 54 54 54
40 52 54 54 55 55 55 55 55 55 56 58 58 57 57 57 58 59 60 58 57 55 55 53 51 51 51 51 53 51 50 52 50 51 52 51 50 49 47 51 52 54 53
44 51 54 54 55 55 55 55 55 54 57 57 57 57 57 57 58 59 59 59 58 56 56 57 54 53 54 55 55 54 54 53 51 50 52 52 52 51 48 47 50 50 52
46 52 54 55 55 54 54 55 55 55 56 57 57 56 56 57 57 57 57 58 58 58 57 57 57 57 56 56 55 55 54 53 52 50 52 52 51 50 50 49 49 49 50
46 52 53 54 54 54 54 54 54 54 56 56 56 56 55 56 57 57 57 57 57 57 58 57 56 58 57 57 56 56 55 54 53 52 51 53 52 53 52 50 50 49 51
45 50 53 54 53 54 54 54 53 54 55 56 56 55 55 56 56 57 57 57 57 58 58 58 58 57 57 57 57 57 56 55 55 53 52 53 53 53 53 51 50 49 49
43 49 52 54 53 53 54 53 53 54 55 55 56 55 55 54 55 55 56 57 57 57 58 58 58 58 58 57 57 56 56 56 56 55 55 54 54 55 54 54 53 50 48
39 50 52 53 54 53 54 54 54 55 55 56 56 56 55 55 55 55 54 54 55 56 56 57 57 57 57 57 55 55 55 56 56 56 55 55 55 55 55 55 54 54 52
48 51 52 53 54 53 53 54 54 54 55 56 55 55 56 55 54 54 53 53 53 54 55 56 56 56 56 56 55 55 55 55 54 55 55 55 55 55 55 55 55 54 54
49 51 52 52 52 52 52 53 53 54 54 55 56 56 56 55 55 54 53 52 52 53 54 55 55 56 55 55 56 56 56 55 55 55 54 54 54 55 55 55 54 54 53
51 51 52 52 52 52 52 52 53 53 54 55 56 56 56 56 55 54 53 52 51 52 53 54 55 55 55 55 55 55 55 55 55 55 55 54 55 54 54 54 53 53 53
50 51 52 52 52 53 53 53 54 54 54 54 54 54 54 55 56 55 55 53 52 51 52 53 54 54 54 55 55 55 55 55 55 55 55 54 54 54 53 53 53 53 53
46 47 49 51 52 53 54 54 54 54 54 54 54 54 54 54 54 54 54 55 54 52 51 51 52 53 53 54 54 54 54 54 54 54 54 54 53 50 51 53 53 53 52
42 43 44 45 46 47 47 48 49 51 55 54 54 55 54 54 54 53 54 54 54 54 54 53 52 52 51 46 44 50 54 54 54 53 53 53 48 48 44 45 46 49 52
39 39 40 41 41 41 41 42 43 46 47 47 46 47 50 54 54 54 54 55 55 55 54 54 54 54 54 43 43 43 51 52 53 53 53 52 52 48 51 46 42 42 42
35 35 37 37 37 37 37 37 37 38 38 39 39 41 42 43 45 47 47 51 53 55 55 55 55 55 39 36 36 37 47 52 52 53 53 53 53 52 51 51 50 49 46
33 32 33 34 36 35 34 33 32 33 33 33 34 36 37 38 39 39 40 43 46 44 39 38 39 39 35 35 35 36 43 49 52 51 37 36 38 37 38 42 46 41 32
32 30 30 31 32 34 34 31 30 30 30 30 31 32 33 34 35 36 37 39 38 35 34 32 32 32 32 34 35 36 41 41 36 33 33 33 34 34 36 38 39 33 30
32 30 29 29 29 32 33 31 29 28 29 29 30 30 30 31 32 32 33 34 34 32 31 29 29 29 31 31 33 34 34 34 32 31 30 31 32 32 33 33 33 32 30
28 29 29 29 29 29 31 31 30 29 28 28 28 28 29 29 30 30 31 31 31 30 29 28 28 28 29 30 30 30 30 30 28 28 28 29 29 28 28 28 28 28 27
28 27 27 27 27 27 28 28 29 28 28 27 27 27 27 28 28 29 29 28 29 28 28 27 27 27 28 28 29 28 27 27 26 27 26 25 25 24 24 25 24 24 23
25 25 24 24 25 25 26 27 28 28 27 26 25 25 25 26 26 26 27 28 28 27 26 26 26 27 27 26 26 26 25 24 24 22 21 21 21 19 19 20 21 21 21
22 23 23 23 24 24 25 26 26 27 26 25 25 24 24 23 23 25 25 25 28 27 25 26 26 24 25 27 27 24 22 21 21 20 19 18 18 17 17 17 17 18 18
19 19 20 21 22 22 23 23 24 24 24 23 24 24 23 23 21 20 21 25 26 26 27 26 25 26 26 25 25 24 23 22 20 17 15 15 15 15 15 14 14 14 14